Date String (YYYY-MM-DD hh:mm:ss) UTC,Instrument flags,Ambient pressure (hPa),Sample flow (lpm),Bypass flow (lpm),Sample temperature (°C),Ambient temperature (°C),ASC tube jacket temperature (°C),LED temperature (°C),Box temperature (°C),Sample RH (%),Span deviation,Mass concentration (μg/m³),Mass concentration (μg/m³),Mass concentration (μg/m³)
DateTimeUTC,F1_M11,P_M11,Q1_M11,Q2_M11,T1_M11,T2_M11,T3_M11,T4_M11,T5_M11,U1_M11,ZSPAN_M11,X0_M11,X2_M11,X1_M11
2022-10-28 01:00:00,,0828.5,5.00,0.00,25.4,23.9,00.0,34.2,27.3,17.4,0000.0,0004.07,0002.74,0002.34
2022-10-28 01:01:00,,0828.6,4.99,0.00,25.4,23.9,00.0,34.2,27.3,17.2,0000.0,0003.98,0002.66,0002.33
2022-10-28 01:02:00,,0828.9,4.99,0.00,25.4,23.9,00.0,34.2,27.3,17.3,0000.0,0004.01,0002.60,0002.31
2022-10-28 01:03:00,,0828.7,4.99,0.00,25.4,23.9,00.0,34.2,27.3,17.4,0000.0,0004.10,0002.58,0002.28
2022-10-28 01:04:00,,0829.1,5.00,0.00,25.4,23.9,00.0,34.2,27.3,17.3,0000.0,0004.39,0002.54,0002.26
2022-10-28 01:05:00,,0828.7,5.00,0.00,25.4,23.8,00.0,34.2,27.2,17.3,0000.0,0005.39,0002.53,0002.23
2022-10-28 01:06:00,,0828.8,5.01,0.00,25.4,23.8,00.0,34.2,27.2,17.3,0000.0,0005.37,0002.54,0002.23
2022-10-28 01:07:00,,0829.2,5.00,0.00,25.4,23.9,00.0,34.2,27.3,17.1,0000.0,0005.45,0002.55,0002.23
2022-10-28 01:08:00,,0828.9,5.00,0.00,25.4,23.8,00.0,34.2,27.3,17.1,0000.0,0005.37,0002.53,0002.23
2022-10-28 01:09:00,,0828.7,5.00,0.00,25.4,23.8,00.0,34.2,27.3,17.0,0000.0,0005.39,0002.51,0002.21
2022-10-28 01:10:00,,0828.7,5.00,0.00,25.4,23.8,00.0,34.2,27.3,16.9,0000.0,0005.33,0002.48,0002.19
2022-10-28 01:11:00,,0828.9,5.00,0.00,25.4,23.8,00.0,34.2,27.2,16.9,0000.0,0005.28,0002.46,0002.18
2022-10-28 01:12:00,,0829.4,4.99,0.00,25.4,23.8,00.0,34.2,27.1,16.8,0000.0,0005.13,0002.46,0002.18
2022-10-28 01:13:00,,0829.3,4.99,0.00,25.4,23.8,00.0,34.2,27.1,16.9,0000.0,0004.80,0002.47,0002.20
2022-10-28 01:14:00,,0829.1,5.00,0.00,25.4,23.8,00.0,34.2,27.2,16.8,0000.0,0004.75,0002.49,0002.21
2022-10-28 01:15:00,,0828.9,5.00,0.00,25.3,23.8,00.0,34.2,27.1,16.8,0000.0,0004.71,0002.49,0002.23
2022-10-28 01:16:00,,0828.9,5.00,0.00,25.3,23.7,00.0,34.2,27.1,16.9,0000.0,0003.45,0002.50,0002.24
2022-10-28 01:17:00,,0828.9,5.01,0.00,25.3,23.7,00.0,34.2,27.1,16.9,0000.0,0003.31,0002.48,0002.26
2022-10-28 01:18:00,,0828.9,5.01,0.00,25.3,23.7,00.0,34.2,27.1,16.8,0000.0,0003.20,0002.44,0002.26
2022-10-28 01:19:00,,0829.0,5.00,0.00,25.3,23.7,00.0,34.2,27.1,16.7,0000.0,0003.21,0002.46,0002.27
2022-10-28 01:20:00,,0829.0,4.99,0.00,25.3,23.7,00.0,34.2,27.1,16.7,0000.0,0003.25,0002.50,0002.28
2022-10-28 01:21:00,,0829.0,5.00,0.00,25.3,23.6,00.0,34.2,27.1,16.7,0000.0,0003.27,0002.51,0002.29
2022-10-28 01:22:00,,0829.1,4.99,0.00,25.3,23.7,00.0,34.2,27.1,16.7,0000.0,0003.33,0002.55,0002.30
2022-10-28 01:23:00,,0829.0,5.01,0.00,25.3,23.7,00.0,34.2,27.1,16.7,0000.0,0003.49,0002.58,0002.31
2022-10-28 01:24:00,,0829.1,5.01,0.00,25.3,23.6,00.0,34.2,27.1,16.9,0000.0,0003.70,0002.62,0002.32
2022-10-28 01:25:00,,0829.1,5.01,0.00,25.3,23.6,00.0,34.2,27.1,16.9,0000.0,0003.75,0002.64,0002.33
2022-10-28 01:26:00,,0829.0,4.98,0.00,25.3,23.6,00.0,34.1,27.1,16.9,0000.0,0003.83,0002.67,0002.33
2022-10-28 01:27:00,,0829.1,5.00,0.00,25.3,23.6,00.0,34.1,27.0,16.9,0000.0,0003.89,0002.68,0002.31
2022-10-28 01:28:00,,0829.1,5.01,0.00,25.2,23.6,00.0,34.1,27.1,16.9,0000.0,0003.83,0002.66,0002.28
2022-10-28 01:29:00,,0829.1,5.01,0.00,25.2,23.6,00.0,34.1,27.1,16.9,0000.0,0003.88,0002.68,0002.27
2022-10-28 01:30:00,,0829.1,5.00,0.00,25.2,23.6,00.0,34.1,27.0,17.0,0000.0,0003.89,0002.68,0002.26
2022-10-28 01:31:00,,0829.1,5.00,0.00,25.2,23.6,00.0,34.1,27.0,17.0,0000.0,0003.82,0002.65,0002.26
2022-10-28 01:32:00,,0829.1,5.00,0.00,25.2,23.5,00.0,34.1,27.0,17.0,0000.0,0003.83,0002.68,0002.26
2022-10-28 01:33:00,,0829.2,5.00,0.00,25.2,23.5,00.0,34.1,27.0,17.1,0000.0,0004.04,0002.64,0002.24
2022-10-28 01:34:00,,0829.2,4.99,0.00,25.2,23.5,00.0,34.1,26.9,17.1,0000.0,0004.41,0002.61,0002.21
2022-10-28 01:35:00,,0829.2,5.00,0.00,25.2,23.5,00.0,34.1,26.9,16.9,0000.0,0004.15,0002.54,0002.19
2022-10-28 01:36:00,,0829.3,5.00,0.00,25.2,23.5,00.0,34.1,27.0,16.8,0000.0,0004.00,0002.47,0002.15
2022-10-28 01:37:00,,0829.3,5.00,0.00,25.2,23.5,00.0,34.1,27.0,16.7,0000.0,0003.96,0002.45,0002.13
2022-10-28 01:38:00,,0829.3,5.00,0.00,25.2,23.5,00.0,34.1,26.9,16.7,0000.0,0003.99,0002.45,0002.12
2022-10-28 01:39:00,,0829.3,5.00,0.00,25.2,23.5,00.0,34.1,26.9,16.7,0000.0,0004.03,0002.46,0002.13
2022-10-28 01:40:00,,0829.2,5.00,0.00,25.2,23.5,00.0,34.0,27.0,16.7,0000.0,0004.40,0002.46,0002.12
2022-10-28 01:41:00,,0829.2,5.00,0.00,25.2,23.5,00.0,34.0,27.0,16.7,0000.0,0004.35,0002.43,0002.11
2022-10-28 01:42:00,,0829.2,4.99,0.00,25.1,23.5,00.0,34.0,26.9,16.7,0000.0,0004.33,0002.43,0002.11
2022-10-28 01:43:00,,0829.2,5.01,0.00,25.1,23.5,00.0,34.0,26.9,16.6,0000.0,0004.27,0002.39,0002.10
2022-10-28 01:44:00,,0829.2,5.00,0.00,25.1,23.5,00.0,34.0,26.9,16.6,0000.0,0004.26,0002.39,0002.10
2022-10-28 01:45:00,,0829.4,5.00,0.00,25.1,23.5,00.0,34.0,26.9,16.5,0000.0,0003.64,0002.43,0002.11
2022-10-28 01:46:00,,0829.2,5.00,0.00,25.1,23.5,00.0,34.0,26.9,16.4,0000.0,0003.68,0002.46,0002.11
2022-10-28 01:47:00,,0829.3,5.00,0.00,25.1,23.5,00.0,34.0,27.0,16.3,0000.0,0003.73,0002.47,0002.11
2022-10-28 01:48:00,,0829.3,5.00,0.00,25.1,23.5,00.0,34.0,27.0,16.3,0000.0,0003.67,0002.45,0002.10
2022-10-28 01:49:00,,0829.3,5.00,0.00,25.1,23.5,00.0,34.0,26.9,16.3,0000.0,0003.54,0002.41,0002.10
2022-10-28 01:50:00,,0829.4,5.00,0.00,25.1,23.5,00.0,34.0,27.0,16.3,0000.0,0003.52,0002.40,0002.10
2022-10-28 01:51:00,,0829.3,5.00,0.00,25.1,23.5,00.0,34.0,26.9,16.2,0000.0,0003.07,0002.37,0002.10
2022-10-28 01:52:00,,0829.3,5.00,0.00,25.1,23.5,00.0,34.0,26.9,16.2,0000.0,0003.02,0002.34,0002.09
2022-10-28 01:53:00,,0829.4,5.00,0.00,25.1,23.4,00.0,34.0,26.8,16.2,0000.0,0003.03,0002.35,0002.09
2022-10-28 01:54:00,,0829.4,5.01,0.00,25.1,23.4,00.0,34.0,26.8,16.2,0000.0,0003.12,0002.40,0002.10
2022-10-28 01:55:00,,0829.4,5.01,0.00,25.1,23.4,00.0,34.0,26.9,16.1,0000.0,0003.13,0002.40,0002.09
2022-10-28 01:56:00,,0829.4,5.00,0.00,25.1,23.5,00.0,33.9,26.9,16.1,0000.0,0003.01,0002.35,0002.09
2022-10-28 01:57:00,,0829.5,5.00,0.00,25.1,23.4,00.0,33.9,26.8,16.1,0000.0,0002.96,0002.32,0002.09
2022-10-28 01:58:00,,0829.5,4.99,0.00,25.1,23.4,00.0,33.9,26.9,16.1,0000.0,0003.03,0002.35,0002.10
2022-10-28 01:59:00,,0829.5,5.00,0.00,25.1,23.5,00.0,33.9,26.9,16.1,0000.0,0003.14,0002.40,0002.11
